Location: Beadle
(51.4667°N, 109.0000°W)
Time: 22:00:40
(UTC+00:00)

DIWATA 2B (PO-101) - Pass Details

Date: 03 July 2022
Orbit: 583 x 599 km, 98.0° (Epoch: 07 August)

Event Time Altitude Azimuth Distance (km) Brightness Sun altitude
Exits shadow 08:22:26 - 140° (SE) 2,078 ? -14.3°
Reaches altitude 10° 08:22:47 10° 139° (SE) 1,939 ? -14.3°
Maximum altitude 08:26:46 42° 68° (ENE) 858 ? -14.2°
Drops below altitude 10° 08:30:46 10° 357° (N) 1,952 ? -14.0°
Sets 08:33:01 0° 351° (N) 2,859 ? -13.9°
